Year,Month,Day,Hour,Minute,Value (Times are PST for windspeed in km/hr)
2010,07,12,00,00,11.70
2010,07,12,00,01,10.40
2010,07,12,00,02,13.30
2010,07,12,00,03,16.30
2010,07,12,00,04,16.70
2010,07,12,00,05,17.90
2010,07,12,00,06,11.00
2010,07,12,00,07,13.00
2010,07,12,00,08,6.80
2010,07,12,00,09,7.00
2010,07,12,00,10,5.40
2010,07,12,00,11,4.80
2010,07,12,00,12,6.30
2010,07,12,00,13,5.80
2010,07,12,00,14,2.70
2010,07,12,00,15,5.20
2010,07,12,00,16,3.10
2010,07,12,00,17,8.60
2010,07,12,00,18,7.10
2010,07,12,00,19,12.60
2010,07,12,00,20,10.30
2010,07,12,00,21,6.40
2010,07,12,00,22,3.50
2010,07,12,00,23,8.70
2010,07,12,00,24,7.20
2010,07,12,00,25,9.30
2010,07,12,00,26,11.10
2010,07,12,00,27,4.80
2010,07,12,00,28,0.70
2010,07,12,00,29,1.40
2010,07,12,00,30,8.70
2010,07,12,00,31,2.80
2010,07,12,00,32,2.50
2010,07,12,00,33,5.40
2010,07,12,00,34,4.60
2010,07,12,00,35,4.80
2010,07,12,00,36,2.00
2010,07,12,00,37,3.40
2010,07,12,00,38,4.90
2010,07,12,00,39,1.00
2010,07,12,00,40,2.30
2010,07,12,00,41,8.80
2010,07,12,00,42,7.50
2010,07,12,00,43,3.10
2010,07,12,00,44,3.70
2010,07,12,00,45,0.50
2010,07,12,00,46,1.60
2010,07,12,00,47,0.40
2010,07,12,00,48,2.90
2010,07,12,00,49,4.00
2010,07,12,00,50,6.00
2010,07,12,00,51,8.00
2010,07,12,00,52,4.70
2010,07,12,00,53,2.50
2010,07,12,00,54,13.40
2010,07,12,00,55,8.80
2010,07,12,00,56,5.70
2010,07,12,00,57,5.90
2010,07,12,00,58,2.90
2010,07,12,00,59,2.70
2010,07,12,01,00,0.30
2010,07,12,01,01,5.80
2010,07,12,01,02,3.30
2010,07,12,01,03,5.60
2010,07,12,01,04,8.30
2010,07,12,01,05,6.10
2010,07,12,01,06,13.40
2010,07,12,01,07,7.70
2010,07,12,01,08,10.20
2010,07,12,01,09,7.70
2010,07,12,01,10,7.40
2010,07,12,01,11,7.50
2010,07,12,01,12,5.80
2010,07,12,01,13,10.90
2010,07,12,01,14,10.20
2010,07,12,01,15,6.90
2010,07,12,01,16,7.40
2010,07,12,01,17,7.80
2010,07,12,01,18,10.50
2010,07,12,01,19,9.40
2010,07,12,01,20,4.30
2010,07,12,01,21,9.70
2010,07,12,01,22,19.70
2010,07,12,01,23,11.30
2010,07,12,01,24,9.40
2010,07,12,01,25,7.90
2010,07,12,01,26,10.20
2010,07,12,01,27,13.40
2010,07,12,01,28,14.00
2010,07,12,01,29,13.30
2010,07,12,01,30,10.50
2010,07,12,01,31,9.10
2010,07,12,01,32,15.40
2010,07,12,01,33,18.70
2010,07,12,01,34,17.40
2010,07,12,01,35,9.90
2010,07,12,01,36,11.60
2010,07,12,01,37,9.00
2010,07,12,01,38,6.70
2010,07,12,01,39,12.60
2010,07,12,01,40,14.80
2010,07,12,01,41,10.90
2010,07,12,01,42,10.10
2010,07,12,01,43,9.60
2010,07,12,01,44,11.40
2010,07,12,01,45,14.10
2010,07,12,01,46,8.90
2010,07,12,01,47,13.10
2010,07,12,01,48,6.80
2010,07,12,01,49,3.10
2010,07,12,01,50,8.50
2010,07,12,01,51,7.20
2010,07,12,01,52,14.50
2010,07,12,01,53,10.30
2010,07,12,01,54,13.50
2010,07,12,01,55,9.70
2010,07,12,01,56,6.40
2010,07,12,01,57,4.30
2010,07,12,01,58,7.20
2010,07,12,01,59,2.90
2010,07,12,02,00,9.10
2010,07,12,02,01,9.00
2010,07,12,02,02,6.40
2010,07,12,02,03,6.80
2010,07,12,02,04,9.70
2010,07,12,02,05,5.60
2010,07,12,02,06,9.40
2010,07,12,02,07,9.60
2010,07,12,02,08,10.40
2010,07,12,02,09,12.20
2010,07,12,02,10,8.10
2010,07,12,02,11,5.20
2010,07,12,02,12,4.30
2010,07,12,02,13,6.90
2010,07,12,02,14,12.70
2010,07,12,02,15,8.50
2010,07,12,02,16,9.10
2010,07,12,02,17,7.50
2010,07,12,02,18,8.10
2010,07,12,02,19,5.90
2010,07,12,02,20,1.40
2010,07,12,02,21,4.30
2010,07,12,02,22,2.60
2010,07,12,02,23,7.70
2010,07,12,02,24,15.10
2010,07,12,02,25,9.70
2010,07,12,02,26,5.20
2010,07,12,02,27,4.00
2010,07,12,02,28,4.70
2010,07,12,02,29,10.90
2010,07,12,02,30,11.60
2010,07,12,02,31,4.00
2010,07,12,02,32,2.50
2010,07,12,02,33,5.90
2010,07,12,02,34,3.10
2010,07,12,02,35,11.20
2010,07,12,02,36,11.00
2010,07,12,02,37,8.30
2010,07,12,02,38,11.10
2010,07,12,02,39,18.50
2010,07,12,02,40,11.10
2010,07,12,02,41,14.50
2010,07,12,02,42,10.90
2010,07,12,02,43,5.00
2010,07,12,02,44,5.30
2010,07,12,02,45,6.70
2010,07,12,02,46,11.60
2010,07,12,02,47,8.00
2010,07,12,02,48,7.40
2010,07,12,02,49,12.70
2010,07,12,02,50,9.40
2010,07,12,02,51,10.90
2010,07,12,02,52,8.50
2010,07,12,02,53,7.60
2010,07,12,02,54,9.20
2010,07,12,02,55,8.80
2010,07,12,02,56,6.50
2010,07,12,02,57,9.90
2010,07,12,02,58,5.40
2010,07,12,02,59,3.80
2010,07,12,03,00,7.60
2010,07,12,03,01,11.70
2010,07,12,03,02,11.40
2010,07,12,03,03,10.70
2010,07,12,03,04,5.60
2010,07,12,03,05,2.50
2010,07,12,03,06,2.40
2010,07,12,03,07,1.90
2010,07,12,03,08,6.00
2010,07,12,03,09,1.90
2010,07,12,03,10,1.10
2010,07,12,03,11,0.90
2010,07,12,03,12,5.20
2010,07,12,03,13,2.00
2010,07,12,03,14,7.40
2010,07,12,03,15,7.70
2010,07,12,03,16,8.10
2010,07,12,03,17,3.50
2010,07,12,03,18,0.00
2010,07,12,03,19,1.10
2010,07,12,03,20,1.10
2010,07,12,03,21,1.30
2010,07,12,03,22,0.10
2010,07,12,03,23,0.80
2010,07,12,03,24,2.40
2010,07,12,03,25,4.50
2010,07,12,03,26,0.10
2010,07,12,03,27,1.00
2010,07,12,03,28,3.90
2010,07,12,03,29,8.60
2010,07,12,03,30,12.40
2010,07,12,03,31,8.90
2010,07,12,03,32,8.70
2010,07,12,03,33,10.50
2010,07,12,03,34,6.50
2010,07,12,03,35,9.20
2010,07,12,03,36,13.60
2010,07,12,03,37,17.40
2010,07,12,03,38,7.50
2010,07,12,03,39,10.50
2010,07,12,03,40,9.00
2010,07,12,03,41,7.00
2010,07,12,03,42,9.00
2010,07,12,03,43,15.60
2010,07,12,03,44,14.90
2010,07,12,03,45,19.70
2010,07,12,03,46,12.50
2010,07,12,03,47,9.60
2010,07,12,03,48,10.00
2010,07,12,03,49,17.60
2010,07,12,03,50,17.80
2010,07,12,03,51,15.50
2010,07,12,03,52,16.00
2010,07,12,03,53,14.40
2010,07,12,03,54,13.60
2010,07,12,03,55,10.90
2010,07,12,03,56,12.60
2010,07,12,03,57,14.40
2010,07,12,03,58,11.60
2010,07,12,03,59,9.40
2010,07,12,04,00,14.80
2010,07,12,04,01,6.90
2010,07,12,04,02,9.10
2010,07,12,04,03,14.20
2010,07,12,04,04,7.80
2010,07,12,04,05,6.30
2010,07,12,04,06,1.30
2010,07,12,04,07,10.90
2010,07,12,04,08,6.00
2010,07,12,04,09,3.00
2010,07,12,04,10,3.90
2010,07,12,04,11,9.90
2010,07,12,04,12,9.80
2010,07,12,04,13,7.60
2010,07,12,04,14,5.30
2010,07,12,04,15,13.90
2010,07,12,04,16,7.70
2010,07,12,04,17,16.10
2010,07,12,04,18,5.80
2010,07,12,04,19,9.30
2010,07,12,04,20,9.70
2010,07,12,04,21,6.70
2010,07,12,04,22,3.50
2010,07,12,04,23,8.10
2010,07,12,04,24,6.20
2010,07,12,04,25,8.50
2010,07,12,04,26,10.20
2010,07,12,04,27,1.00
2010,07,12,04,28,10.00
2010,07,12,04,29,14.10
2010,07,12,04,30,7.70
2010,07,12,04,31,13.60
2010,07,12,04,32,9.00
2010,07,12,04,33,3.10
2010,07,12,04,34,2.90
2010,07,12,04,35,2.20
2010,07,12,04,36,4.30
2010,07,12,04,37,0.80
2010,07,12,04,38,0.80
2010,07,12,04,39,0.10
2010,07,12,04,40,0.30
2010,07,12,04,41,3.10
2010,07,12,04,42,6.20
2010,07,12,04,43,1.30
2010,07,12,04,44,5.70
2010,07,12,04,45,7.80
2010,07,12,04,46,5.20
2010,07,12,04,47,4.00
2010,07,12,04,48,4.30
2010,07,12,04,49,7.40
2010,07,12,04,50,0.90
2010,07,12,04,51,5.60
2010,07,12,04,52,10.20
2010,07,12,04,53,8.00
2010,07,12,04,54,1.20
2010,07,12,04,55,6.60
2010,07,12,04,56,5.80
2010,07,12,04,57,4.30
2010,07,12,04,58,4.10
2010,07,12,04,59,0.10
2010,07,12,05,00,0.50
2010,07,12,05,01,2.10
2010,07,12,05,02,0.30
2010,07,12,05,03,0.40
2010,07,12,05,04,2.40
2010,07,12,05,05,0.20
2010,07,12,05,06,0.90
2010,07,12,05,07,3.20
2010,07,12,05,08,0.80
2010,07,12,05,09,0.10
2010,07,12,05,10,0.80
2010,07,12,05,11,4.90
2010,07,12,05,12,1.50
2010,07,12,05,13,2.10
2010,07,12,05,14,0.00
2010,07,12,05,15,1.00
2010,07,12,05,16,2.90
2010,07,12,05,17,0.30
2010,07,12,05,18,2.40
2010,07,12,05,19,0.90
2010,07,12,05,20,1.40
2010,07,12,05,21,0.20
2010,07,12,05,22,2.30
2010,07,12,05,23,0.50
2010,07,12,05,24,0.40
2010,07,12,05,25,0.80
2010,07,12,05,26,5.10
2010,07,12,05,27,2.50
2010,07,12,05,28,3.90
2010,07,12,05,29,1.70
2010,07,12,05,30,3.40
2010,07,12,05,31,5.20
2010,07,12,05,32,5.20
2010,07,12,05,33,1.00
2010,07,12,05,34,2.50
2010,07,12,05,35,1.10
2010,07,12,05,36,0.20
2010,07,12,05,37,1.00
2010,07,12,05,38,1.90
2010,07,12,05,39,2.10
2010,07,12,05,40,1.70
2010,07,12,05,41,2.60
2010,07,12,05,42,1.30
2010,07,12,05,43,2.70
2010,07,12,05,44,0.80
2010,07,12,05,45,0.10
2010,07,12,05,46,2.50
2010,07,12,05,47,0.30
2010,07,12,05,48,8.20
2010,07,12,05,49,1.30
2010,07,12,05,50,3.60
2010,07,12,05,51,6.40
2010,07,12,05,52,4.70
2010,07,12,05,53,3.90
2010,07,12,05,54,1.10
2010,07,12,05,55,2.50
2010,07,12,05,56,3.00
2010,07,12,05,57,4.60
2010,07,12,05,58,7.30
2010,07,12,05,59,4.10
2010,07,12,06,00,3.60
2010,07,12,06,01,4.60
2010,07,12,06,02,0.40
2010,07,12,06,03,0.90
2010,07,12,06,04,4.60
2010,07,12,06,05,6.70
2010,07,12,06,06,3.30
2010,07,12,06,07,5.50
2010,07,12,06,08,3.90
2010,07,12,06,09,3.50
2010,07,12,06,10,3.60
2010,07,12,06,11,7.80
2010,07,12,06,12,5.00
2010,07,12,06,13,5.90
2010,07,12,06,14,3.70
2010,07,12,06,15,1.50
2010,07,12,06,16,1.60
2010,07,12,06,17,4.60
2010,07,12,06,18,6.60
2010,07,12,06,19,5.10
2010,07,12,06,20,4.70
2010,07,12,06,21,3.40
2010,07,12,06,22,2.90
2010,07,12,06,23,1.90
2010,07,12,06,24,1.20
2010,07,12,06,25,0.10
2010,07,12,06,26,0.60
2010,07,12,06,27,0.40
2010,07,12,06,28,0.80
2010,07,12,06,29,0.20
2010,07,12,06,30,0.80
2010,07,12,06,31,5.90
2010,07,12,06,32,6.20
2010,07,12,06,33,5.40
2010,07,12,06,34,2.40
2010,07,12,06,35,7.90
2010,07,12,06,36,3.90
2010,07,12,06,37,0.60
2010,07,12,06,38,5.80
2010,07,12,06,39,5.60
2010,07,12,06,40,11.60
2010,07,12,06,41,7.70
2010,07,12,06,42,7.20
2010,07,12,06,43,3.30
2010,07,12,06,44,3.80
2010,07,12,06,45,3.80
2010,07,12,06,46,3.60
2010,07,12,06,47,5.60
2010,07,12,06,48,5.90
2010,07,12,06,49,3.90
2010,07,12,06,50,5.10
2010,07,12,06,51,3.60
2010,07,12,06,52,1.00
2010,07,12,06,53,3.70
2010,07,12,06,54,3.30
2010,07,12,06,55,1.40
2010,07,12,06,56,6.60
2010,07,12,06,57,8.50
2010,07,12,06,58,7.50
2010,07,12,06,59,7.40
2010,07,12,07,00,4.50
2010,07,12,07,01,4.00
2010,07,12,07,02,5.60
2010,07,12,07,03,5.10
2010,07,12,07,04,3.90
2010,07,12,07,05,6.20
2010,07,12,07,06,9.90
2010,07,12,07,07,5.20
2010,07,12,07,08,10.70
2010,07,12,07,09,8.60
2010,07,12,07,10,6.80
2010,07,12,07,11,4.10
2010,07,12,07,12,4.10
2010,07,12,07,13,10.80
2010,07,12,07,14,8.40
2010,07,12,07,15,7.00
2010,07,12,07,16,6.00
2010,07,12,07,17,16.10
2010,07,12,07,18,10.20
2010,07,12,07,19,4.30
2010,07,12,07,20,3.70
2010,07,12,07,21,6.10
2010,07,12,07,22,3.90
2010,07,12,07,23,1.60
2010,07,12,07,24,3.10
2010,07,12,07,25,12.00
2010,07,12,07,26,7.20
2010,07,12,07,27,11.90
2010,07,12,07,28,7.90
2010,07,12,07,29,6.60
2010,07,12,07,30,6.70
2010,07,12,07,31,8.30
2010,07,12,07,32,8.60
2010,07,12,07,33,6.60
2010,07,12,07,34,6.00
2010,07,12,07,35,10.50
2010,07,12,07,36,13.80
2010,07,12,07,37,17.10
2010,07,12,07,38,13.00
2010,07,12,07,39,13.80
2010,07,12,07,40,7.70
2010,07,12,07,41,18.60
2010,07,12,07,42,16.10
2010,07,12,07,43,19.90
2010,07,12,07,44,17.90
2010,07,12,07,45,17.10
2010,07,12,07,46,23.20
2010,07,12,07,47,20.90
2010,07,12,07,48,17.60
2010,07,12,07,49,9.80
2010,07,12,07,50,10.60
2010,07,12,07,51,14.30
2010,07,12,07,52,13.00
2010,07,12,07,53,15.40
2010,07,12,07,54,9.50
2010,07,12,07,55,10.80
2010,07,12,07,56,15.40
2010,07,12,07,57,9.60
2010,07,12,07,58,8.60
2010,07,12,07,59,12.60
2010,07,12,08,00,7.30
2010,07,12,08,01,18.60
2010,07,12,08,02,14.20
2010,07,12,08,03,13.30
2010,07,12,08,04,12.40
2010,07,12,08,05,17.00
2010,07,12,08,06,20.80
2010,07,12,08,07,14.50
2010,07,12,08,08,15.60
2010,07,12,08,09,11.30
2010,07,12,08,10,14.60
2010,07,12,08,11,18.70
2010,07,12,08,12,17.20
2010,07,12,08,13,14.90
2010,07,12,08,14,15.30
2010,07,12,08,15,10.20
2010,07,12,08,16,12.10
2010,07,12,08,17,8.30
2010,07,12,08,18,13.60
2010,07,12,08,19,14.20
2010,07,12,08,20,18.50
2010,07,12,08,21,18.10
2010,07,12,08,22,15.50
2010,07,12,08,23,20.10
2010,07,12,08,24,22.40
2010,07,12,08,25,12.50
2010,07,12,08,26,15.10
2010,07,12,08,27,9.70
2010,07,12,08,28,5.10
2010,07,12,08,29,7.40
2010,07,12,08,30,12.40
2010,07,12,08,31,20.30
2010,07,12,08,32,16.60
2010,07,12,08,33,19.00
2010,07,12,08,34,18.80
2010,07,12,08,35,14.50
2010,07,12,08,36,23.40
2010,07,12,08,37,13.20
2010,07,12,08,38,21.60
2010,07,12,08,39,16.90
2010,07,12,08,40,17.00
2010,07,12,08,41,11.30
2010,07,12,08,42,13.30
2010,07,12,08,43,12.50
2010,07,12,08,44,8.90
2010,07,12,08,45,14.60
2010,07,12,08,46,18.60
2010,07,12,08,47,20.80
2010,07,12,08,48,19.00
2010,07,12,08,49,17.60
2010,07,12,08,50,15.80
2010,07,12,08,51,20.40
2010,07,12,08,52,16.40
2010,07,12,08,53,12.70
2010,07,12,08,54,14.30
2010,07,12,08,55,15.50
2010,07,12,08,56,18.00
2010,07,12,08,57,10.50
2010,07,12,08,58,12.80
2010,07,12,08,59,10.90
2010,07,12,09,00,14.40
2010,07,12,09,01,17.60
2010,07,12,09,02,18.00
2010,07,12,09,03,21.30
2010,07,12,09,04,14.00
2010,07,12,09,05,11.70
2010,07,12,09,06,19.00
2010,07,12,09,07,15.90
2010,07,12,09,08,19.90
2010,07,12,09,09,19.90
2010,07,12,09,10,20.80
2010,07,12,09,11,8.60
2010,07,12,09,12,21.20
2010,07,12,09,13,17.40
2010,07,12,09,14,14.70
2010,07,12,09,15,19.10
2010,07,12,09,16,21.30
2010,07,12,09,17,17.50
2010,07,12,09,18,15.00
2010,07,12,09,19,11.10
2010,07,12,09,20,13.10
2010,07,12,09,21,7.30
2010,07,12,09,22,13.50
2010,07,12,09,23,16.80
2010,07,12,09,24,10.10
2010,07,12,09,25,4.40
2010,07,12,09,26,9.00
2010,07,12,09,27,13.00
2010,07,12,09,28,17.00
2010,07,12,09,29,10.10
2010,07,12,09,30,16.20
2010,07,12,09,31,12.80
2010,07,12,09,32,11.90
2010,07,12,09,33,9.40
2010,07,12,09,34,10.40
2010,07,12,09,35,14.30
2010,07,12,09,36,16.50
2010,07,12,09,37,15.20
2010,07,12,09,38,15.90
2010,07,12,09,39,18.20
2010,07,12,09,40,12.90
2010,07,12,09,41,17.60
2010,07,12,09,42,14.10
2010,07,12,09,43,22.90
2010,07,12,09,44,21.60
2010,07,12,09,45,16.90
2010,07,12,09,46,10.40
2010,07,12,09,47,12.70
2010,07,12,09,48,27.20
2010,07,12,09,49,20.20
2010,07,12,09,50,17.90
2010,07,12,09,51,22.10
2010,07,12,09,52,16.90
2010,07,12,09,53,19.30
2010,07,12,09,54,20.80
2010,07,12,09,55,11.50
2010,07,12,09,56,14.50
2010,07,12,09,57,20.30
2010,07,12,09,58,23.50
2010,07,12,09,59,21.20
2010,07,12,10,00,9.10
2010,07,12,10,01,20.60
2010,07,12,10,02,14.20
2010,07,12,10,03,9.70
2010,07,12,10,04,21.50
2010,07,12,10,05,17.40
2010,07,12,10,06,13.00
2010,07,12,10,07,13.90
2010,07,12,10,08,19.20
2010,07,12,10,09,16.40
2010,07,12,10,10,17.60
2010,07,12,10,11,13.00
2010,07,12,10,12,15.80
2010,07,12,10,13,14.80
2010,07,12,10,14,18.20
2010,07,12,10,15,18.80
2010,07,12,10,16,22.00
2010,07,12,10,17,18.80
2010,07,12,10,18,16.50
2010,07,12,10,19,23.10
2010,07,12,10,20,17.60
2010,07,12,10,21,18.30
2010,07,12,10,22,34.20
2010,07,12,10,23,30.40
2010,07,12,10,24,15.20
2010,07,12,10,25,15.00
2010,07,12,10,26,14.50
2010,07,12,10,27,13.30
2010,07,12,10,28,12.40
2010,07,12,10,29,20.00
2010,07,12,10,30,18.30
2010,07,12,10,31,10.80
2010,07,12,10,32,20.90
2010,07,12,10,33,17.90
2010,07,12,10,34,30.90
2010,07,12,10,35,22.30
2010,07,12,10,36,22.80
2010,07,12,10,37,10.10
2010,07,12,10,38,18.00
2010,07,12,10,39,14.50
2010,07,12,10,40,18.00
2010,07,12,10,41,17.40
2010,07,12,10,42,18.60
2010,07,12,10,43,12.70
2010,07,12,10,44,15.20
2010,07,12,10,45,16.90
2010,07,12,10,46,18.20
2010,07,12,10,47,15.40
2010,07,12,10,48,20.80
2010,07,12,10,49,24.10
2010,07,12,10,50,15.90
2010,07,12,10,51,14.90
2010,07,12,10,52,10.90
2010,07,12,10,53,20.00
2010,07,12,10,54,16.50
2010,07,12,10,55,16.30
2010,07,12,10,56,16.70
2010,07,12,10,57,21.60
2010,07,12,10,58,23.50
2010,07,12,10,59,28.00
2010,07,12,11,00,23.70
2010,07,12,11,01,23.80
2010,07,12,11,02,18.50
2010,07,12,11,03,21.60
2010,07,12,11,04,21.00
2010,07,12,11,05,25.00
2010,07,12,11,06,24.60
2010,07,12,11,07,18.60
2010,07,12,11,08,15.40
2010,07,12,11,09,28.60
2010,07,12,11,10,22.80
2010,07,12,11,11,18.30
2010,07,12,11,12,15.20
2010,07,12,11,13,15.90
2010,07,12,11,14,24.10
2010,07,12,11,15,18.20
2010,07,12,11,16,24.40
2010,07,12,11,17,24.90
2010,07,12,11,18,21.50
2010,07,12,11,19,20.20
2010,07,12,11,20,12.00
2010,07,12,11,21,23.10
2010,07,12,11,22,17.50
2010,07,12,11,23,13.40
2010,07,12,11,24,22.90
2010,07,12,11,25,15.90
2010,07,12,11,26,16.90
2010,07,12,11,27,16.80
2010,07,12,11,28,14.70
2010,07,12,11,29,16.40
2010,07,12,11,30,6.40
2010,07,12,11,31,17.60
2010,07,12,11,32,21.40
2010,07,12,11,33,16.00
2010,07,12,11,34,18.20
2010,07,12,11,35,22.90
2010,07,12,11,36,14.40
2010,07,12,11,37,21.20
2010,07,12,11,38,18.20
2010,07,12,11,39,13.60
2010,07,12,11,40,10.50
2010,07,12,11,41,16.20
2010,07,12,11,42,20.40
2010,07,12,11,43,18.10
2010,07,12,11,44,15.20
2010,07,12,11,45,20.10
2010,07,12,11,46,18.50
2010,07,12,11,47,7.70
2010,07,12,11,48,10.30
2010,07,12,11,49,22.90
2010,07,12,11,50,24.20
2010,07,12,11,51,18.70
2010,07,12,11,52,19.00
2010,07,12,11,53,24.30
2010,07,12,11,54,22.80
2010,07,12,11,55,15.70
2010,07,12,11,56,15.10
2010,07,12,11,57,22.40
2010,07,12,11,58,21.20
2010,07,12,11,59,29.20
2010,07,12,12,00,22.00
2010,07,12,12,01,10.40
2010,07,12,12,02,16.00
2010,07,12,12,03,10.50
2010,07,12,12,04,7.80
2010,07,12,12,05,8.00
2010,07,12,12,06,17.90
2010,07,12,12,07,11.20
2010,07,12,12,08,15.30
2010,07,12,12,09,15.90
2010,07,12,12,10,15.50
2010,07,12,12,11,16.40
2010,07,12,12,12,11.00
2010,07,12,12,13,14.20
2010,07,12,12,14,16.70
2010,07,12,12,15,12.20
2010,07,12,12,16,9.30
2010,07,12,12,17,15.30
2010,07,12,12,18,22.10
2010,07,12,12,19,15.00
2010,07,12,12,20,21.30
2010,07,12,12,21,26.70
2010,07,12,12,22,23.40
2010,07,12,12,23,24.00
2010,07,12,12,24,20.00
2010,07,12,12,25,14.50
2010,07,12,12,26,7.70
2010,07,12,12,27,14.50
2010,07,12,12,28,22.90
2010,07,12,12,29,15.70
2010,07,12,12,30,14.20
2010,07,12,12,31,18.10
2010,07,12,12,32,18.30
2010,07,12,12,33,16.00
2010,07,12,12,34,15.80
2010,07,12,12,35,19.90
2010,07,12,12,36,21.30
2010,07,12,12,37,22.90
2010,07,12,12,38,24.70
2010,07,12,12,39,21.40
2010,07,12,12,40,21.30
2010,07,12,12,41,22.00
2010,07,12,12,42,16.20
2010,07,12,12,43,8.30
2010,07,12,12,44,13.90
2010,07,12,12,45,22.20
2010,07,12,12,46,21.60
2010,07,12,12,47,20.20
2010,07,12,12,48,19.90
2010,07,12,12,49,19.10
2010,07,12,12,50,19.30
2010,07,12,12,51,20.60
2010,07,12,12,52,14.90
2010,07,12,12,53,23.30
2010,07,12,12,54,20.30
2010,07,12,12,55,20.80
2010,07,12,12,56,18.00
2010,07,12,12,57,11.80
2010,07,12,12,58,19.00
2010,07,12,12,59,17.30
2010,07,12,13,00,14.20
2010,07,12,13,01,19.90
2010,07,12,13,02,23.20
2010,07,12,13,03,13.60
2010,07,12,13,04,12.20
2010,07,12,13,05,20.00
2010,07,12,13,06,15.10
2010,07,12,13,07,8.60
2010,07,12,13,08,20.60
2010,07,12,13,09,21.00
2010,07,12,13,10,17.40
2010,07,12,13,11,11.70
2010,07,12,13,12,24.50
2010,07,12,13,13,23.80
2010,07,12,13,14,15.50
2010,07,12,13,15,22.30
2010,07,12,13,16,13.00
2010,07,12,13,17,16.90
2010,07,12,13,18,18.90
2010,07,12,13,19,19.20
2010,07,12,13,20,18.10
2010,07,12,13,21,21.60
2010,07,12,13,22,25.20
2010,07,12,13,23,15.40
2010,07,12,13,24,22.50
2010,07,12,13,25,14.20
2010,07,12,13,26,9.60
2010,07,12,13,27,9.00
2010,07,12,13,28,19.60
2010,07,12,13,29,13.80
2010,07,12,13,30,7.50
2010,07,12,13,31,22.40
2010,07,12,13,32,24.60
2010,07,12,13,33,19.20
2010,07,12,13,34,20.90
2010,07,12,13,35,27.40
2010,07,12,13,36,21.40
2010,07,12,13,37,22.00
2010,07,12,13,38,18.50
2010,07,12,13,39,19.00
2010,07,12,13,40,20.00
2010,07,12,13,41,19.10
2010,07,12,13,42,16.40
2010,07,12,13,43,19.30
2010,07,12,13,44,22.70
2010,07,12,13,45,17.50
2010,07,12,13,46,17.90
2010,07,12,13,47,19.50
2010,07,12,13,48,18.80
2010,07,12,13,49,11.70
2010,07,12,13,50,15.40
2010,07,12,13,51,21.30
2010,07,12,13,52,18.40
2010,07,12,13,53,21.10
2010,07,12,13,54,14.80
2010,07,12,13,55,23.00
2010,07,12,13,56,18.90
2010,07,12,13,57,19.60
2010,07,12,13,58,16.30
2010,07,12,13,59,10.90
2010,07,12,14,00,13.00
2010,07,12,14,01,16.10
2010,07,12,14,02,13.10
2010,07,12,14,03,13.60
2010,07,12,14,04,18.00
2010,07,12,14,05,17.40
2010,07,12,14,06,15.30
2010,07,12,14,07,18.30
2010,07,12,14,08,21.40
2010,07,12,14,09,18.30
2010,07,12,14,10,20.70
2010,07,12,15,53,17.80
2010,07,12,15,54,20.50
2010,07,12,15,55,16.70
2010,07,12,15,56,15.50
2010,07,12,15,57,10.50
2010,07,12,15,58,14.70
2010,07,12,15,59,18.70
2010,07,12,16,00,18.30
2010,07,12,16,01,14.70
2010,07,12,16,02,18.60
2010,07,12,16,03,14.70
2010,07,12,16,04,17.00
2010,07,12,16,05,15.50
2010,07,12,16,06,19.40
2010,07,12,16,07,18.70
2010,07,12,16,08,11.80
2010,07,12,16,09,16.30
2010,07,12,16,10,25.80
2010,07,12,16,11,21.20
2010,07,12,16,12,22.70
2010,07,12,16,13,16.40
2010,07,12,16,14,16.80
2010,07,12,16,15,13.90
2010,07,12,16,16,14.10
2010,07,12,16,17,9.90
2010,07,12,16,18,15.00
2010,07,12,16,19,21.90
2010,07,12,16,20,13.60
2010,07,12,16,21,17.30
2010,07,12,16,22,16.40
2010,07,12,16,23,21.50
2010,07,12,16,24,13.60
2010,07,12,16,25,12.90
2010,07,12,16,26,14.10
2010,07,12,16,27,7.60
2010,07,12,16,28,10.40
2010,07,12,16,29,10.80
2010,07,12,16,30,22.40
2010,07,12,16,31,14.20
2010,07,12,16,32,14.40
2010,07,12,16,33,22.50
2010,07,12,16,34,13.50
2010,07,12,16,35,12.70
2010,07,12,16,36,14.50
2010,07,12,16,37,15.00
2010,07,12,16,38,9.20
2010,07,12,16,39,11.30
2010,07,12,16,40,19.70
2010,07,12,16,41,22.50
2010,07,12,16,42,19.80
2010,07,12,16,43,12.50
2010,07,12,16,44,11.90
2010,07,12,16,45,17.30
2010,07,12,16,46,14.30
2010,07,12,16,47,12.70
2010,07,12,16,48,9.40
2010,07,12,16,49,11.40
2010,07,12,16,50,14.20
2010,07,12,16,51,3.90
2010,07,12,16,52,9.50
2010,07,12,16,53,9.20
2010,07,12,16,54,12.20
2010,07,12,16,55,10.10
2010,07,12,16,56,8.50
2010,07,12,16,57,18.20
2010,07,12,16,58,16.80
2010,07,12,16,59,19.70
2010,07,12,17,00,20.70
2010,07,12,17,01,24.70
2010,07,12,17,02,21.20
2010,07,12,17,03,13.90
2010,07,12,17,04,18.10
2010,07,12,17,05,21.10
2010,07,12,17,06,18.10
2010,07,12,17,07,22.50
2010,07,12,17,08,20.20
2010,07,12,17,09,18.20
2010,07,12,17,10,19.40
2010,07,12,17,11,17.80
2010,07,12,17,12,15.80
2010,07,12,17,13,15.80
2010,07,12,17,14,15.70
2010,07,12,17,15,12.20
2010,07,12,17,16,10.80
2010,07,12,17,17,16.00
2010,07,12,17,18,14.30
2010,07,12,17,19,16.30
2010,07,12,17,20,21.30
2010,07,12,17,21,18.50
2010,07,12,17,22,17.30
2010,07,12,17,23,16.10
2010,07,12,17,24,11.50
2010,07,12,17,25,19.10
2010,07,12,17,26,13.00
2010,07,12,17,27,0.80
2010,07,12,17,28,15.70
2010,07,12,17,29,15.50
2010,07,12,17,30,12.40
2010,07,12,17,31,13.20
2010,07,12,17,32,9.50
2010,07,12,17,33,10.40
2010,07,12,17,34,14.70
2010,07,12,17,35,10.00
2010,07,12,17,36,14.90
2010,07,12,17,37,17.90
2010,07,12,17,38,8.60
2010,07,12,17,39,15.00
2010,07,12,17,40,13.90
2010,07,12,17,41,11.60
2010,07,12,17,42,12.20
2010,07,12,17,43,13.00
2010,07,12,17,44,16.30
2010,07,12,17,45,11.70
2010,07,12,17,46,14.50
2010,07,12,17,47,10.30
2010,07,12,17,48,19.10
2010,07,12,17,49,7.80
2010,07,12,17,50,10.80
2010,07,12,17,51,11.60
2010,07,12,17,52,5.60
2010,07,12,17,53,12.60
2010,07,12,17,54,6.60
2010,07,12,17,55,11.70
2010,07,12,17,56,6.90
2010,07,12,17,57,12.00
2010,07,12,17,58,10.80
2010,07,12,17,59,7.40
2010,07,12,18,00,5.30
2010,07,12,18,01,8.00
2010,07,12,18,02,18.60
2010,07,12,18,03,9.10
2010,07,12,18,04,10.30
2010,07,12,18,05,11.00
2010,07,12,18,06,6.70
2010,07,12,18,07,10.60
2010,07,12,18,08,20.60
2010,07,12,18,09,17.40
2010,07,12,18,10,5.80
2010,07,12,18,11,12.30
2010,07,12,18,12,12.70
2010,07,12,18,13,13.90
2010,07,12,18,14,8.00
2010,07,12,18,15,11.60
2010,07,12,18,16,17.10
2010,07,12,18,17,22.40
2010,07,12,18,18,14.00
2010,07,12,18,19,8.30
2010,07,12,18,20,8.10
2010,07,12,18,21,10.00
2010,07,12,18,22,12.40
2010,07,12,18,23,5.40
2010,07,12,18,24,9.00
2010,07,12,18,25,10.30
2010,07,12,18,26,10.00
2010,07,12,18,27,6.10
2010,07,12,18,28,5.60
2010,07,12,18,29,13.00
2010,07,12,18,30,9.40
2010,07,12,18,31,10.00
2010,07,12,18,32,10.10
2010,07,12,18,33,14.80
2010,07,12,18,34,7.90
2010,07,12,18,35,14.10
2010,07,12,18,36,13.50
2010,07,12,18,37,11.40
2010,07,12,18,38,7.60
2010,07,12,18,39,8.20
2010,07,12,18,40,11.40
2010,07,12,18,41,13.60
2010,07,12,18,42,14.60
2010,07,12,18,43,13.10
2010,07,12,18,44,9.70
2010,07,12,18,45,16.00
2010,07,12,18,46,14.10
2010,07,12,18,47,12.00
2010,07,12,18,48,16.90
2010,07,12,18,49,13.90
2010,07,12,18,50,13.30
2010,07,12,18,51,2.00
2010,07,12,18,52,12.60
2010,07,12,18,53,11.40
2010,07,12,18,54,5.20
2010,07,12,18,55,12.00
2010,07,12,18,56,18.40
2010,07,12,18,57,8.50
2010,07,12,18,58,8.00
2010,07,12,18,59,13.90
2010,07,12,19,00,8.40
2010,07,12,19,01,8.20
2010,07,12,19,02,8.00
2010,07,12,19,03,6.50
2010,07,12,19,04,8.80
2010,07,12,19,05,17.30
2010,07,12,19,06,18.00
2010,07,12,19,07,18.50
2010,07,12,19,08,15.90
2010,07,12,19,09,24.80
2010,07,12,19,10,16.10
2010,07,12,19,11,7.20
2010,07,12,19,12,11.40
2010,07,12,19,13,16.90
2010,07,12,19,14,10.00
2010,07,12,19,15,10.90
2010,07,12,19,16,17.60
2010,07,12,19,17,22.70
2010,07,12,19,18,18.90
2010,07,12,19,19,15.40
2010,07,12,19,20,11.30